Flag for U.S.A. Weather past 2 weeks in Costa Mesa, California, U.S.A.

Now
76 °F

Scattered clouds.


Feels Like: 78 °F
Forecast: 69 / 81 °F
Wind: 13 mph from Southwest

Location: John Wayne Airport-Orange County Airport

Current Time: Aug 31, 2015 at 12:58:14 PM

Latest Report: Aug 31, 2015 at 11:53 AM


Visibility: 10 mi

Pressure: 29.90 "Hg

Humidity: 64%

Dew point: 63 °F

Location of Costa MesaLocation

Historic Weather in Costa Mesa — Graph

°F

Costa Mesa temperature yesterday

Maximum temperature yesterday: 82 °F (at 12:53 PM)
Minimum temperature yesterday: 70 °F (at 9:53 PM)
Average temperature yesterday: 75 °F

Past Weeks' High & Low Weather Summary

 TemperatureHumidityPressure
High91 °F (Aug 28, 11:53 AM)93% (Aug 26, 3:53 AM)29.98 "Hg (Aug 26, 3:53 AM)
Low67 °F (Aug 23, 1:53 AM)32% (Aug 28, 11:53 AM)29.79 "Hg (Aug 16, 5:53 PM)
Average75 °F72%29.89 "Hg
* Reported Aug 16 11:53 AM — Aug 31 11:53 AM, Costa Mesa, Weather by CustomWeather, © 2015

Note: Actual official high and low records may vary slightly from our data, if they occured in-between our weather recording intervals... More about our weather records

Advertising

Costa Mesa weather history for previous 24 hours

 ConditionsComfort  
Time TempWeatherWind HumidityBarometerVisibility
11:53 AM
Mon, Aug 31
76 °FScattered clouds.13 mph64%29.90 "Hg10 mi
10:53 AM77 °FScattered clouds.10 mph60%29.91 "Hg10 mi
9:53 AM73 °FOvercast.5 mph71%29.91 "Hg10 mi
8:53 AM70 °FOvercast.5 mph79%29.90 "Hg10 mi
7:53 AM70 °FOvercast.7 mph79%29.88 "Hg10 mi
6:53 AM69 °FOvercast.8 mph81%29.87 "Hg10 mi
5:53 AM69 °FOvercast.6 mph81%29.85 "Hg10 mi
4:53 AM69 °FOvercast.3 mph84%29.84 "Hg10 mi
3:53 AM70 °FOvercast.7 mph81%29.84 "Hg10 mi
2:53 AM70 °FOvercast.7 mph84%29.84 "Hg10 mi
1:53 AM70 °FClear.5 mph84%29.84 "Hg10 mi
12:53 AM70 °FClear.3 mph84%29.84 "Hg10 mi
11:53 PM
Sun, Aug 30
70 °FClear.No wind84%29.85 "Hg10 mi
10:53 PM70 °FPassing clouds.6 mph84%29.85 "Hg7 mi
9:53 PM70 °FPassing clouds.5 mph84%29.85 "Hg7 mi
8:53 PM71 °FPassing clouds.6 mph81%29.84 "Hg10 mi
7:53 PM72 °FPassing clouds.5 mph78%29.82 "Hg10 mi
6:53 PM74 °FPassing clouds.6 mph71%29.82 "Hg10 mi
5:53 PM78 °FScattered clouds.6 mph60%29.82 "Hg10 mi
4:53 PM80 °FScattered clouds.9 mph58%29.83 "Hg10 mi
3:53 PM82 °FScattered clouds.12 mph58%29.83 "Hg10 mi
2:53 PM81 °FScattered clouds.9 mph62%29.85 "Hg10 mi
1:53 PM82 °FScattered clouds.9 mph60%29.88 "Hg10 mi
12:53 PM82 °FScattered clouds.13 mph63%29.89 "Hg10 mi
Weather by CustomWeather, © 2015

See weather overviewHow to use our weather pages